WD5U-1 Weather Reports


time (UTC)temp
F
wind
direction
speed
knots
gust
knots
rain 1hr
in
rain 24hr
in
rain mn
in
humidity
%
barometer
mb
20260506222224 65 21 7.0 10.4 0.00 0.00 0.00 68 1015.8
20260506222042 65 15 9.6 13.9 0.00 0.00 0.00 67 1015.6
20260506221841 65 35 7.8 10.4 0.00 0.00 0.00 67 1015.6
20260506221619 64 22 6.1 9.6 0.00 0.00 0.00 68 1015.5
20260506221418 64 35 12.2 15.6 0.00 0.00 0.00 67 1015.6
20260506221219 65 7 8.7 18.2 0.00 0.00 0.00 67 1015.5
20260506221025 65 339 9.6 14.8 0.00 0.00 0.00 65 1015.6
20260506220824 65 5 6.1 12.2 0.00 0.00 0.00 66 1015.9
20260506220622 65 13 7.8 10.4 0.00 0.00 0.00 65 1015.7
20260506220441 65 9 7.8 13.0 0.00 0.00 0.00 66 1015.6
20260506220242 65 20 8.7 13.9 0.00 0.00 0.00 67 1015.6
20260506220017 65 15 4.3 9.6 0.00 0.00 0.00 67 1015.5
20260506215836 64 11 8.7 13.0 0.00 0.00 0.00 66 1015.8
20260506215645 64 12 6.1 12.2 0.00 0.00 0.00 68 1015.6
20260506215443 64 31 7.0 10.4 0.00 0.00 0.00 67 1015.6
20260506215222 65 32 9.6 10.4 0.00 0.00 0.00 66 1015.7
20260506215020 64 35 8.7 13.0 0.00 0.00 0.00 67 1015.7
20260506214839 64 17 7.0 10.4 0.00 0.00 0.00 67 1015.6
20260506214617 63 44 9.6 14.8 0.00 0.00 0.00 68 1015.6
20260506214416 63 41 8.7 13.0 0.00 0.00 0.00 68 1015.7
20260506214248 63 39 11.3 14.8 0.00 0.00 0.00 68 1015.5
20260506214023 63 24 9.6 13.0 0.00 0.00 0.00 69 1015.8
20260506213822 63 26 8.7 13.0 0.00 0.00 0.00 68 1015.7
20260506213623 64 34 8.7 11.3 0.00 0.00 0.00 68 1015.9
20260506213419 65 32 10.4 13.0 0.00 0.00 0.00 66 1015.8
20260506213238 64 8 5.2 8.7 0.00 0.00 0.00 66 1015.9
20260506213018 65 57 8.7 12.2 0.00 0.00 0.00 66 1015.8
20260506212824 64 44 10.4 13.9 0.00 0.00 0.00 66 1015.7
20260506212623 65 50 9.6 14.8 0.00 0.00 0.00 65 1015.8
20260506212421 66 40 10.4 13.9 0.00 0.00 0.00 64 1015.7
20260506212240 66 29 9.6 13.0 0.00 0.00 0.00 66 1015.8
20260506212039 65 25 7.8 9.6 0.00 0.00 0.00 65 1015.8
20260506211817 65 29 6.1 8.7 0.00 0.00 0.00 66 1015.6
20260506211636 64 31 7.0 11.3 0.00 0.00 0.00 67 1015.6
20260506211425 66 60 9.6 14.8 0.00 0.00 0.00 65 1015.6
20260506211303 64 33 4.3 8.7 0.00 0.00 0.00 68 1015.8
20260506211022 64 27 8.7 9.6 0.00 0.00 0.00 66 1015.7
20260506210820 64 7 6.1 10.4 0.00 0.00 0.00 66 1015.6
20260506210618 64 14 7.0 9.6 0.00 0.00 0.00 67 1015.8
20260506210417 64 20 8.7 11.3 0.00 0.00 0.00 67 1015.9
20260506210216 65 17 7.0 14.8 0.00 0.00 0.00 65 1015.8
20260506210024 64 22 7.0 10.4 0.00 0.00 0.00 66 1015.9
20260506205826 65 20 7.0 10.4 0.00 0.00 0.00 65 1015.8
20260506205621 65 7 8.7 12.2 0.00 0.00 0.00 65 1016.0
20260506205420 64 36 5.2 7.8 0.00 0.00 0.00 67 1016.0
20260506205219 64 66 8.7 13.0 0.00 0.00 0.00 66 1015.9
20260506205017 64 32 7.0 10.4 0.00 0.00 0.00 65 1016.1
20260506204826 64 43 7.8 11.3 0.00 0.00 0.00 67 1016.1
20260506204624 64 39 9.6 12.2 0.00 0.00 0.00 67 1016.0
20260506204422 64 51 5.2 8.7 0.00 0.00 0.00 66 1016.3
20260506204221 64 62 9.6 11.3 0.00 0.00 0.00 66 1016.3
20260506204019 65 26 9.6 12.2 0.00 0.00 0.00 66 1016.3
20260506203818 64 68 2.6 11.3 0.00 0.00 0.00 65 1016.4
20260506203617 64 65 7.8 12.2 0.00 0.00 0.00 65 1016.4
20260506203425 64 38 9.6 12.2 0.00 0.00 0.00 66 1016.4
20260506203224 65 29 7.8 13.0 0.00 0.00 0.00 66 1016.4
20260506203024 65 24 7.0 11.3 0.00 0.00 0.00 66 1016.4
20260506202821 64 21 8.7 13.0 0.00 0.00 0.00 65 1016.4
20260506202619 65 35 5.2 7.8 0.00 0.00 0.00 66 1016.3
20260506202418 64 28 7.8 10.4 0.00 0.00 0.00 66 1016.5
20260506202237 64 6 5.2 11.3 0.00 0.00 0.00 66 1016.4
20260506202046 65 320 5.2 8.7 0.00 0.00 0.00 64 1016.5
20260506201827 64 24 4.3 6.1 0.00 0.00 0.00 65 1016.5
20260506201622 65 54 6.1 9.6 0.00 0.00 0.00 64 1016.3
20260506201421 64 24 2.6 4.3 0.00 0.00 0.00 64 1016.4
20260506201219 64 14 7.0 9.6 0.00 0.00 0.00 65 1016.5
20260506201018 65 22 5.2 8.7 0.00 0.00 0.00 64 1016.5
20260506200837 66 72 7.0 9.6 0.00 0.00 0.00 62 1016.5
20260506200625 67 75 3.5 6.1 0.00 0.00 0.00 61 1016.7
20260506200423 66 7 2.6 5.2 0.00 0.00 0.00 62 1016.6
20260506200222 64 24 2.6 3.5 0.00 0.00 0.00 64 1016.5
20260506200040 65 23 7.0 8.7 0.00 0.00 0.00 64 1016.5
20260506195819 65 13 2.6 3.5 0.00 0.00 0.00 63 1016.6
20260506195618 64 47 8.7 12.2 0.00 0.00 0.00 65 1016.4
20260506195416 64 40 7.0 11.3 0.00 0.00 0.00 64 1016.4
20260506195225 64 34 6.1 9.6 0.00 0.00 0.00 65 1016.4
20260506195023 63 30 6.1 10.4 0.00 0.00 0.00 65 1016.3
20260506194822 63 40 7.8 12.2 0.00 0.00 0.00 66 1016.2
20260506194620 65 53 8.7 13.0 0.00 0.00 0.00 64 1016.5
20260506194419 66 49 2.6 5.2 0.00 0.00 0.00 61 1016.3
20260506194219 64 74 3.5 5.2 0.00 0.00 0.00 65 1016.3
20260506194016 63 53 9.6 11.3 0.00 0.00 0.00 65 1016.1
20260506193825 65 40 7.8 10.4 0.00 0.00 0.00 66 1015.9
20260506193623 64 41 7.0 12.2 0.00 0.00 0.00 65 1016.3
20260506193422 65 322 8.7 10.4 0.00 0.00 0.00 64 1016.0
20260506193240 64 16 4.3 7.8 0.00 0.00 0.00 66 1015.9
20260506193119 63 23 7.8 13.0 0.00 0.00 0.00 66 1015.7
20260506192817 65 22 10.4 14.8 0.00 0.00 0.00 65 1015.8
20260506192618 63 37 8.7 13.9 0.00 0.00 0.00 66 1015.6
20260506192424 63 22 7.0 8.7 0.00 0.00 0.00 67 1015.6
20260506192223 62 33 7.8 10.4 0.00 0.00 0.00 67 1015.8
20260506192023 62 22 9.6 12.2 0.00 0.00 0.00 67 1015.7
20260506191840 62 16 10.4 13.0 0.00 0.00 0.00 67 1015.7
20260506191619 62 29 10.4 15.6 0.00 0.00 0.00 68 1015.8
20260506191417 63 32 12.2 14.8 0.00 0.00 0.00 67 1015.8
20260506191216 62 31 10.4 14.8 0.00 0.00 0.00 68 1015.6
20260506191024 63 35 11.3 15.6 0.00 0.00 0.00 67 1015.5
20260506190823 63 29 8.7 13.9 0.00 0.00 0.00 67 1015.8
20260506190621 62 38 8.7 13.0 0.00 0.00 0.00 67 1015.8
20260506190440 62 46 8.7 13.0 0.00 0.00 0.00 67 1015.8
20260506190218 64 17 4.3 7.8 0.00 0.00 0.00 65 1015.8
20260506190038 63 37 9.6 13.0 0.00 0.00 0.00 68 1015.9
20260506185827 62 25 8.7 13.9 0.00 0.00 0.00 68 1015.9
20260506185626 61 26 7.0 11.3 0.00 0.00 0.00 68 1016.0
20260506185423 61 38 8.7 12.2 0.00 0.00 0.00 68 1015.8
20260506185221 62 22 9.6 14.8 0.00 0.00 0.00 68 1015.8
20260506185040 61 25 8.7 12.2 0.00 0.00 0.00 68 1016.0
20260506184818 61 18 9.6 14.8 0.00 0.00 0.00 68 1016.1
20260506184616 62 17 10.4 15.6 0.00 0.00 0.00 67 1016.0
20260506184425 62 26 7.0 10.4 0.00 0.00 0.00 68 1016.1
20260506184224 63 12 6.1 9.6 0.00 0.00 0.00 67 1016.3
20260506184024 63 5 6.1 11.3 0.00 0.00 0.00 66 1016.0
20260506183821 62 27 9.6 14.8 0.00 0.00 0.00 68 1016.1
20260506183619 62 11 11.3 14.8 0.00 0.00 0.00 67 1015.9
20260506183418 62 13 8.7 13.0 0.00 0.00 0.00 67 1016.1
20260506183216 62 16 9.6 13.9 0.00 0.00 0.00 68 1016.1
20260506183046 62 37 7.0 12.2 0.00 0.00 0.00 68 1016.0
20260506182824 61 49 9.6 13.9 0.00 0.00 0.00 70 1015.8
20260506182624 60 36 12.2 15.6 0.00 0.00 0.00 70 1015.9
20260506182501 60 27 14.8 19.1 0.00 0.00 0.00 70 1015.9
20260506182222 60 32 9.6 15.6 0.00 0.00 0.00 70 1016.2
20260506182018 61 25 12.2 16.5 0.00 0.00 0.00 69 1016.2
20260506181817 61 21 12.2 17.4 0.00 0.00 0.00 70 1016.0
20260506181645 60 29 8.7 11.3 0.00 0.00 0.00 70 1015.9
20260506181424 60 25 14.8 18.2 0.00 0.00 0.00 70 1015.9
20260506181222 60 29 14.8 18.2 0.00 0.00 0.00 70 1016.0
20260506181021 61 21 13.0 17.4 0.00 0.00 0.00 69 1015.9
20260506180819 62 15 11.3 16.5 0.00 0.00 0.00 68 1015.9
20260506180618 61 25 7.8 12.2 0.00 0.00 0.00 70 1016.0
20260506180416 61 7 11.3 16.5 0.00 0.00 0.00 69 1015.9
20260506180225 61 16 7.8 13.0 0.00 0.00 0.00 69 1016.3
20260506180023 60 22 10.4 16.5 0.00 0.00 0.00 70 1016.3
20260506175822 61 26 7.8 13.9 0.00 0.00 0.00 69 1016.3
20260506175620 60 29 9.6 14.8 0.00 0.00 0.00 69 1016.1
20260506175459 60 15 12.2 18.2 0.00 0.00 0.00 70 1016.2
20260506175218 60 17 11.3 19.1 0.00 0.00 0.00 70 1016.2
20260506175018 62 10 9.6 18.2 0.00 0.00 0.00 68 1016.3
20260506174825 61 357 7.8 13.9 0.00 0.00 0.00 68 1016.3
20260506174623 61 3 7.0 11.3 0.00 0.00 0.00 69 1016.4
20260506174442 59 4 9.6 13.0 0.00 0.00 0.00 70 1016.3
20260506174220 59 17 11.3 16.5 0.00 0.00 0.00 70 1016.4
20260506174019 60 13 10.4 17.4 0.00 0.00 0.00 69 1016.5
20260506173817 60 11 9.6 13.0 0.00 0.00 0.00 70 1016.6
20260506173615 60 18 9.6 12.2 0.00 0.00 0.00 70 1016.5
20260506173424 58 47 10.4 18.2 0.00 0.00 0.00 71 1016.5
20260506173223 59 17 13.0 19.1 0.00 0.00 0.00 70 1016.6
20260506173021 60 13 7.8 14.8 0.00 0.00 0.00 69 1016.6
20260506172840 61 3 7.0 13.0 0.00 0.00 0.00 69 1016.4
20260506172659 60 13 12.2 20.0 0.00 0.00 0.00 70 1016.3
20260506172417 60 13 10.4 16.5 0.00 0.00 0.00 69 1016.3
20260506172216 58 21 10.4 13.0 0.00 0.00 0.00 71 1016.5
20260506172024 58 47 11.3 16.5 0.00 0.00 0.00 71 1016.7
20260506171824 59 357 7.0 14.8 0.00 0.00 0.00 70 1016.8
20260506171621 59 8 7.8 16.5 0.00 0.00 0.00 72 1016.7
20260506171440 58 44 11.3 15.6 0.00 0.00 0.00 72 1016.4
20260506171238 58 49 12.2 19.1 0.00 0.00 0.00 72 1016.6
20260506171017 57 30 14.8 18.2 0.00 0.00 0.00 72 1016.7
20260506170827 58 11 11.3 15.6 0.00 0.00 0.00 72 1016.6
20260506170644 58 22 12.2 16.5 0.00 0.00 0.00 72 1016.8
20260506170423 57 8 8.7 15.6 0.00 0.00 0.00 73 1016.7
20260506170221 56 17 12.2 20.0 0.00 0.00 0.00 73 1016.8
20260506170020 57 28 14.8 16.5 0.00 0.00 0.00 72 1016.7
20260506165818 57 25 11.3 16.5 0.00 0.00 0.00 72 1016.7
20260506165637 58 28 10.4 13.9 0.00 0.00 0.00 72 1016.7
20260506165507 57 27 8.7 14.8 0.00 0.00 0.00 73 1016.8
20260506165224 56 40 13.9 20.0 0.00 0.00 0.00 73 1016.7
20260506165022 56 29 13.0 17.4 0.00 0.00 0.00 74 1016.6
20260506164821 56 36 13.0 20.9 0.00 0.00 0.00 74 1016.7
20260506164619 56 26 11.3 15.6 0.00 0.00 0.00 74 1016.6
20260506164419 56 28 13.9 18.2 0.00 0.00 0.00 73 1016.7
20260506164218 57 24 9.6 16.5 0.00 0.00 0.00 74 1016.5
20260506164025 57 44 8.7 13.0 0.00 0.00 0.00 73 1016.6
20260506163823 56 23 9.6 13.0 0.00 0.00 0.00 74 1016.5
20260506163622 56 35 15.6 19.1 0.00 0.00 0.00 74 1016.4
20260506163440 55 23 13.0 17.4 0.00 0.00 0.00 75 1016.5
20260506163219 55 27 13.9 16.5 0.00 0.00 0.00 75 1016.5
20260506163038 55 28 8.7 11.3 0.00 0.00 0.00 76 1016.4
20260506162818 55 42 12.2 15.6 0.00 0.00 0.00 76 1016.8
20260506162625 54 15 9.6 15.6 0.00 0.00 0.00 76 1016.7
20260506162423 55 28 13.0 20.0 0.00 0.00 0.00 76 1016.8
20260506162245 55 13 4.3 7.0 0.00 0.00 0.00 76 1016.8
20260506162021 54 13 7.8 9.6 0.00 0.00 0.00 77 1016.7
20260506161819 54 24 13.0 17.4 0.00 0.00 0.00 77 1016.6
20260506161658 54 8 9.6 16.5 0.00 0.00 0.00 77 1016.4
20260506161416 54 26 12.2 18.2 0.00 0.00 0.00 77 1016.3
20260506161226 54 14 8.7 11.3 0.00 0.00 0.00 77 1016.3
20260506161023 54 19 7.8 11.3 0.00 0.00 0.00 78 1016.5
20260506160822 54 14 10.4 14.8 0.00 0.00 0.00 77 1016.6
20260506160620 53 19 8.7 12.2 0.00 0.00 0.00 78 1016.5
20260506160439 53 19 10.4 13.9 0.00 0.00 0.00 78 1016.8
20260506160217 53 18 9.6 13.0 0.00 0.00 0.00 78 1016.8
20260506160015 53 11 7.8 11.3 0.00 0.00 0.00 78 1016.7
20260506155824 53 13 8.7 13.0 0.00 0.00 0.00 78 1017.0
20260506155643 53 25 8.7 12.2 0.00 0.00 0.00 79 1017.1
20260506155421 53 21 8.7 11.3 0.00 0.00 0.00 78 1017.1
20260506155220 53 22 7.8 9.6 0.00 0.00 0.00 79 1017.3
20260506155018 53 24 6.1 7.8 0.00 0.00 0.00 80 1017.3
20260506154817 53 33 5.2 7.0 0.00 0.00 0.00 79 1017.4
20260506154625 53 39 7.0 9.6 0.00 0.00 0.00 79 1017.7
20260506154424 53 34 7.0 11.3 0.00 0.00 0.00 79 1017.5
20260506154243 53 35 8.7 10.4 0.00 0.00 0.00 79 1017.9
20260506154021 52 28 7.8 11.3 0.00 0.00 0.00 79 1017.6
20260506153820 53 19 8.7 11.3 0.00 0.00 0.00 78 1017.9
20260506153640 53 11 7.0 8.7 0.00 0.00 0.00 78 1017.8
20260506153417 53 21 7.8 9.6 0.00 0.00 0.00 78 1017.9
20260506153225 53 22 7.0 9.6 0.00 0.00 0.00 78 1018.3
20260506153024 53 32 6.1 7.0 0.00 0.00 0.00 78 1018.0
20260506152823 53 41 5.2 7.8 0.00 0.00 0.00 79 1018.0
20260506152621 53 53 4.3 5.2 0.00 0.00 0.00 79 1018.1
20260506152419 52 42 2.6 5.2 0.00 0.00 0.00 79 1018.1
20260506152218 53 27 6.1 8.7 0.00 0.00 0.00 78 1017.8
20260506152017 53 15 4.3 8.7 0.00 0.00 0.00 79 1017.8
20260506151825 53 17 7.8 13.0 0.00 0.00 0.00 78 1017.4
20260506151624 53 9 8.7 14.8 0.00 0.00 0.00 78 1017.5
20260506151423 53 3 7.8 11.3 0.00 0.00 0.00 78 1017.3
20260506151221 53 17 6.1 8.7 0.00 0.00 0.00 79 1017.2
20260506151021 52 12 7.8 12.2 0.00 0.00 0.00 79 1017.1
20260506150818 52 24 11.3 16.5 0.00 0.00 0.00 79 1017.0
20260506150616 52 11 10.4 14.8 0.00 0.00 0.00 79 1017.0
20260506150425 52 14 7.0 11.3 0.00 0.00 0.00 79 1016.9
20260506150224 52 23 8.7 11.3 0.00 0.00 0.00 79 1016.7
20260506150022 52 28 12.2 16.5 0.00 0.00 0.00 79 1016.8
20260506145821 52 17 10.4 16.5 0.00 0.00 0.00 79 1016.8
20260506145619 52 17 9.6 15.6 0.00 0.00 0.00 80 1016.9
20260506145418 52 8 8.7 13.0 0.00 0.00 0.00 79 1017.0
20260506145218 52 5 6.1 10.4 0.00 0.00 0.00 80 1017.1
20260506145024 52 12 9.6 13.9 0.00 0.00 0.00 79 1017.2
20260506144823 52 23 10.4 15.6 0.00 0.00 0.00 80 1016.9
20260506144642 52 12 6.1 9.6 0.00 0.00 0.00 80 1016.8
20260506144421 52 9 9.6 18.2 0.00 0.00 0.00 80 1016.9
20260506144219 52 20 10.4 13.0 0.00 0.00 0.00 79 1016.7
20260506144017 52 20 10.4 13.0 0.00 0.00 0.00 80 1016.9
20260506143819 52 16 7.8 11.3 0.00 0.00 0.00 80 1017.0
20260506143644 52 19 7.0 9.6 0.00 0.00 0.00 80 1016.7
20260506143423 52 16 11.3 13.0 0.00 0.00 0.00 80 1016.8
20260506143221 52 29 7.0 9.6 0.00 0.00 0.00 81 1016.7
20260506143023 52 30 8.7 11.3 0.00 0.00 0.00 81 1016.8
20260506142818 52 21 6.1 10.4 0.00 0.00 0.00 81 1016.9
20260506142637 52 35 8.7 12.2 0.00 0.00 0.00 81 1016.9
20260506142425 52 31 9.6 13.0 0.00 0.00 0.00 81 1016.7
20260506142405 52 24 8.7 14.8 0.00 0.00 0.00 82 1016.7
20260506142023 52 26 4.3 5.2 0.00 0.00 0.00 83 1016.6
20260506141822 52 18 3.5 5.2 0.00 0.00 0.00 83 1016.9
20260506141620 52 22 6.1 8.7 0.00 0.00 0.00 83 1016.9
20260506141418 52 14 7.0 9.6 0.00 0.00 0.00 82 1017.1
20260506141219 51 2 7.0 9.6 0.00 0.00 0.00 83 1017.0
20260506141026 51 19 9.6 11.3 0.00 0.00 0.00 82 1016.7
20260506140824 51 11 7.8 8.7 0.00 0.00 0.00 83 1016.8
20260506140625 51 18 7.8 11.3 0.00 0.00 0.00 82 1016.7
20260506140421 51 20 8.7 12.2 0.00 0.00 0.00 83 1016.5
20260506140219 51 19 6.1 9.6 0.00 0.00 0.00 83 1016.5
20260506140038 51 13 8.7 12.2 0.00 0.00 0.00 83 1016.5
20260506135817 51 13 6.1 7.8 0.00 0.00 0.00 83 1016.3
20260506135645 51 21 7.0 10.4 0.00 0.00 0.00 83 1016.1
20260506135424 51 20 7.0 9.6 0.00 0.00 0.00 83 1016.0
20260506135224 51 26 11.3 13.0 0.00 0.00 0.00 83 1015.9
20260506135021 51 38 10.4 13.9 0.00 0.00 0.00 83 1016.0
20260506134819 51 31 7.8 12.2 0.00 0.00 0.00 84 1015.9
20260506134618 51 21 7.0 9.6 0.00 0.00 0.00 84 1016.1
20260506134416 51 22 10.4 13.9 0.00 0.00 0.00 84 1016.1
20260506134225 51 18 9.6 13.9 0.00 0.00 0.00 84 1016.2
20260506134024 51 22 13.0 18.2 0.00 0.00 0.00 84 1016.0
20260506133823 51 19 11.3 14.8 0.00 0.00 0.00 84 1016.1
20260506133622 51 15 8.7 13.0 0.00 0.00 0.00 84 1015.8
20260506133439 51 9 7.8 13.9 0.00 0.00 0.00 84 1015.8
20260506133218 51 11 8.7 12.2 0.00 0.00 0.00 84 1015.9
20260506133016 51 11 7.0 10.4 0.00 0.00 0.00 85 1015.9
20260506132825 51 24 9.6 14.8 0.00 0.00 0.00 84 1016.0
20260506132623 51 19 9.6 12.2 0.00 0.00 0.00 85 1015.9
20260506132422 51 16 10.4 16.5 0.00 0.00 0.00 84 1016.0
20260506132221 51 15 8.7 11.3 0.00 0.00 0.00 85 1015.7
20260506132019 50 12 6.1 8.7 0.00 0.00 0.00 86 1015.8
20260506131818 50 13 7.8 11.3 0.00 0.00 0.00 86 1015.7
20260506131616 50 14 7.8 11.3 0.00 0.00 0.00 86 1015.8
20260506131426 50 13 7.0 10.4 0.00 0.00 0.00 87 1015.8
20260506131243 50 21 7.0 10.4 0.00 0.00 0.00 87 1015.8
20260506131042 50 9 7.0 10.4 0.00 0.00 0.00 87 1015.6
20260506130821 50 7 6.1 8.7 0.00 0.00 0.00 87 1015.6
20260506130619 50 14 4.3 7.0 0.00 0.00 0.00 88 1015.5
20260506130420 50 12 7.8 12.2 0.00 0.00 0.00 87 1015.5
20260506130216 50 16 7.0 8.7 0.00 0.00 0.00 88 1015.6
20260506130024 50 10 7.8 11.3 0.00 0.00 0.00 88 1015.6
20260506125823 50 16 7.8 10.4 0.00 0.00 0.00 88 1015.4
20260506125622 49 24 10.4 13.9 0.00 0.00 0.00 89 1015.1
20260506125420 49 24 7.0 9.6 0.00 0.00 0.00 89 1015.2
20260506125220 49 16 7.8 13.0 0.00 0.00 0.00 90 1015.4
20260506125019 49 10 9.6 12.2 0.00 0.00 0.00 90 1015.2
20260506124816 49 15 8.7 13.0 0.00 0.00 0.00 90 1015.2
20260506124624 49 20 7.8 11.3 0.00 0.00 0.00 91 1015.2
20260506124444 49 11 7.8 11.3 0.00 0.00 0.00 91 1015.2
20260506124221 49 13 6.1 8.7 0.00 0.00 0.00 92 1015.2
20260506124040 49 12 7.0 12.2 0.00 0.00 0.00 91 1015.2
20260506123818 49 13 9.6 12.2 0.00 0.00 0.00 91 1015.1
20260506123617 49 15 7.0 9.6 0.00 0.00 0.00 91 1015.2
20260506123426 49 0 7.0 8.7 0.00 0.00 0.00 92 1015.2
20260506123224 49 11 7.8 10.4 0.00 0.00 0.00 91 1015.0
20260506123022 49 7 7.0 9.6 0.00 0.00 0.00 91 1015.1
20260506122821 49 13 7.8 12.2 0.00 0.00 0.00 91 1015.1
20260506122620 49 7 7.8 12.2 0.00 0.00 0.00 91 1015.0
20260506122418 49 17 10.4 14.8 0.00 0.00 0.00 91 1015.0
20260506122217 49 19 10.4 13.9 0.00 0.00 0.00 91 1015.0
20260506122025 49 3 7.8 12.2 0.00 0.00 0.00 91 1015.1
20260506121824 49 9 7.8 12.2 0.00 0.00 0.00 91 1015.2
20260506121642 49 15 7.0 9.6 0.00 0.00 0.00 91 1015.2
20260506121421 49 11 9.6 12.2 0.00 0.00 0.00 90 1015.4
20260506121240 49 11 10.4 14.8 0.00 0.00 0.00 90 1015.4
20260506121018 49 17 7.8 11.3 0.00 0.00 0.00 90 1015.3
20260506120816 49 10 6.1 10.4 0.00 0.00 0.00 90 1015.3
20260506120625 49 9 7.0 12.2 0.00 0.00 0.00 90 1015.2
20260506120423 49 5 6.1 8.7 0.00 0.00 0.00 91 1015.1
20260506120222 49 7 7.8 13.0 0.00 0.00 0.00 90 1015.2
20260506120041 49 9 8.7 15.6 0.00 0.00 0.00 90 1015.1
20260506115820 49 11 8.7 12.2 0.00 0.00 0.00 90 1015.1
20260506115617 49 13 7.0 9.6 0.00 0.00 0.00 90 1015.2
20260506115436 49 5 6.1 10.4 0.00 0.00 0.00 90 1015.4
20260506115227 49 10 5.2 7.0 0.00 0.00 0.00 90 1015.2
20260506115023 49 13 7.0 10.4 0.00 0.00 0.00 90 1015.1
20260506114822 49 346 7.8 13.9 0.00 0.00 0.00 90 1015.1
20260506114620 49 360 6.1 8.7 0.00 0.00 0.00 90 1014.9
20260506114419 49 359 7.0 10.4 0.00 0.00 0.00 90 1014.8
20260506114220 49 2 7.8 13.0 0.00 0.00 0.00 90 1014.7
20260506114016 49 9 6.1 10.4 0.00 0.00 0.00 90 1014.8
20260506113844 49 9 8.7 11.3 0.00 0.00 0.00 90 1014.4
20260506113623 49 8 6.1 9.6 0.00 0.00 0.00 90 1014.5
20260506113422 49 12 10.4 15.6 0.00 0.00 0.00 90 1014.8
20260506113303 49 353 6.1 11.3 0.00 0.00 0.00 90 1014.7
20260506113019 49 9 8.7 13.0 0.00 0.00 0.00 90 1014.6
20260506112817 49 10 8.7 13.0 0.00 0.00 0.00 90 1014.5
20260506112616 49 12 7.8 11.3 0.00 0.00 0.00 90 1014.6
20260506112427 49 18 9.6 17.4 0.00 0.00 0.00 90 1014.2
20260506112223 49 350 4.3 9.6 0.00 0.00 0.00 90 1014.5
20260506112021 49 11 6.1 11.3 0.00 0.00 0.00 90 1014.4
20260506111820 49 1 8.7 12.2 0.00 0.00 0.00 90 1014.3
20260506111618 49 358 10.4 17.4 0.00 0.00 0.00 90 1014.3
20260506111437 49 356 6.1 12.2 0.00 0.00 0.00 91 1014.3
20260506111228 49 4 8.7 16.5 0.00 0.00 0.00 90 1014.3
20260506111024 49 7 10.4 14.8 0.00 0.00 0.00 91 1014.3
20260506110823 49 5 7.0 9.6 0.00 0.00 0.00 91 1014.3
20260506110621 49 9 10.4 13.0 0.00 0.00 0.00 91 1014.2
20260506110440 49 9 9.6 16.5 0.00 0.00 0.00 91 1014.3
20260506110218 49 10 7.8 12.2 0.00 0.00 0.00 91 1014.1
20260506110018 49 9 9.6 14.8 0.00 0.00 0.00 91 1014.2
20260506105825 49 1 12.2 15.6 0.00 0.00 0.00 91 1014.2
20260506105624 49 5 9.6 13.9 0.00 0.00 0.00 91 1014.4
20260506105444 49 8 7.8 12.2 0.00 0.00 0.00 91 1014.4
20260506105221 49 6 7.0 11.3 0.00 0.00 0.00 91 1014.3
20260506105019 49 355 7.8 19.1 0.00 0.00 0.00 90 1014.3
20260506104818 49 356 8.7 13.9 0.00 0.00 0.00 90 1014.0
20260506104617 49 353 7.0 14.8 0.00 0.00 0.00 90 1014.0
20260506104425 49 9 7.0 11.3 0.00 0.00 0.00 89 1014.1
20260506104226 49 2 7.0 10.4 0.00 0.00 0.00 89 1014.0
20260506104022 49 1 7.8 12.2 0.00 0.00 0.00 89 1014.1
20260506103821 49 3 10.4 13.9 0.00 0.00 0.00 89 1014.2
20260506103619 50 5 8.7 14.8 0.00 0.00 0.00 88 1014.3
20260506103418 50 356 9.6 15.6 0.00 0.00 0.00 87 1014.1
20260506103216 50 340 7.0 13.0 0.00 0.00 0.00 87 1014.0
20260506103025 50 15 10.4 14.8 0.00 0.00 0.00 86 1014.1
20260506102823 50 16 10.4 14.8 0.00 0.00 0.00 86 1013.9
20260506102622 50 1 11.3 14.8 0.00 0.00 0.00 85 1014.0
20260506102421 51 339 4.3 9.6 0.00 0.00 0.00 85 1014.1
20260506102219 51 347 6.1 11.3 0.00 0.00 0.00 85 1013.9
20260506102018 51 354 4.3 9.6 0.00 0.00 0.00 85 1013.9
20260506101816 51 342 9.6 16.5 0.00 0.00 0.00 85 1013.7
20260506101645 51 343 7.8 14.8 0.00 0.00 0.00 84 1013.9
20260506101425 51 350 7.0 12.2 0.00 0.00 0.00 84 1014.0
20260506101222 51 333 7.8 14.8 0.00 0.00 0.00 84 1013.9
20260506101020 51 340 8.7 13.9 0.00 0.00 0.00 84 1013.9
20260506100819 51 356 7.0 13.0 0.00 0.00 0.00 84 1013.9
20260506100618 51 10 5.2 10.4 0.00 0.00 0.00 84 1013.7
20260506100436 51 11 9.6 13.9 0.00 0.00 0.00 84 1013.9
20260506100305 51 355 6.1 10.4 0.00 0.00 0.00 84 1013.8
20260506100023 51 5 8.7 12.2 0.00 0.00 0.00 84 1013.5
20260506095844 51 353 6.1 13.9 0.00 0.00 0.00 84 1013.9
20260506095620 51 343 7.8 13.0 0.00 0.00 0.00 84 1014.0
20260506095418 51 1 7.8 16.5 0.00 0.00 0.00 83 1013.6
20260506095217 51 6 9.6 13.9 0.00 0.00 0.00 83 1013.6
20260506095016 52 337 7.8 13.0 0.00 0.00 0.00 83 1013.5
20260506094824 52 4 5.2 7.8 0.00 0.00 0.00 83 1013.4
20260506094442 52 344 7.0 9.6 0.00 0.00 0.00 82 1013.6
20260506094220 52 2 7.8 13.0 0.00 0.00 0.00 82 1013.3
20260506094018 52 358 7.8 15.6 0.00 0.00 0.00 82 1013.4
20260506093817 52 345 4.3 7.0 0.00 0.00 0.00 81 1013.4
20260506093618 52 359 5.2 9.6 0.00 0.00 0.00 81 1013.1
20260506093424 52 12 9.6 13.9 0.00 0.00 0.00 81 1013.0
20260506093223 52 341 9.6 13.9 0.00 0.00 0.00 81 1013.1
20260506093021 52 356 5.2 9.6 0.00 0.00 0.00 81 1012.9
20260506092821 52 9 7.0 10.4 0.00 0.00 0.00 81 1012.8
20260506092658 52 4 7.0 9.6 0.00 0.00 0.00 80 1013.0
20260506092439 52 359 4.3 7.0 0.00 0.00 0.00 80 1012.6
20260506092225 52 358 6.1 9.6 0.00 0.00 0.00 80 1012.9
20260506092024 52 10 6.1 7.8 0.00 0.00 0.00 80 1012.8
20260506091842 52 5 6.1 9.6 0.00 0.00 0.00 80 1012.9
20260506091641 52 12 5.2 8.7 0.00 0.00 0.00 80 1012.9
20260506091439 52 4 8.7 14.8 0.00 0.00 0.00 80 1012.7
20260506091220 52 4 5.2 7.8 0.00 0.00 0.00 80 1013.0
20260506091037 52 6 5.2 9.6 0.00 0.00 0.00 80 1012.9
20260506090825 52 8 6.1 10.4 0.00 0.00 0.00 80 1012.9
20260506090625 52 14 7.8 10.4 0.00 0.00 0.00 80 1012.7
20260506090422 52 12 6.1 8.7 0.00 0.00 0.00 80 1012.7
20260506090241 53 352 5.2 8.7 0.00 0.00 0.00 80 1012.6
20260506090019 53 358 7.0 13.0 0.00 0.00 0.00 80 1012.7
20260506085819 53 10 4.3 7.0 0.00 0.00 0.00 80 1012.6
20260506085636 53 13 8.7 12.2 0.00 0.00 0.00 79 1012.5
20260506085425 53 18 10.4 13.0 0.00 0.00 0.00 79 1012.5
20260506085223 53 3 6.1 9.6 0.00 0.00 0.00 80 1012.5
20260506085022 53 13 8.7 10.4 0.00 0.00 0.00 80 1012.5
20260506084820 53 7 7.0 12.2 0.00 0.00 0.00 80 1012.5
20260506084639 53 359 6.1 9.6 0.00 0.00 0.00 80 1012.7
20260506084418 53 4 5.2 8.7 0.00 0.00 0.00 80 1012.4
20260506084216 53 4 5.2 8.7 0.00 0.00 0.00 80 1012.7
20260506084025 53 13 7.8 11.3 0.00 0.00 0.00 80 1012.6
20260506083825 53 8 7.0 9.6 0.00 0.00 0.00 80 1012.7
20260506083622 53 10 6.1 10.4 0.00 0.00 0.00 80 1012.5
20260506083421 53 352 4.3 7.0 0.00 0.00 0.00 80 1012.6
20260506083219 53 2 5.2 7.8 0.00 0.00 0.00 80 1012.6
20260506083020 53 347 5.2 8.7 0.00 0.00 0.00 80 1012.4
20260506082816 53 358 6.1 9.6 0.00 0.00 0.00 80 1012.6
20260506082627 53 3 7.0 12.2 0.00 0.00 0.00 80 1012.4
20260506082443 53 358 6.1 10.4 0.00 0.00 0.00 80 1012.4
20260506082221 53 352 7.0 9.6 0.00 0.00 0.00 80 1012.4
20260506082020 53 337 5.2 8.7 0.00 0.00 0.00 80 1012.4
20260506081818 53 358 4.3 11.3 0.00 0.00 0.00 80 1012.4
20260506081657 53 354 3.5 7.0 0.00 0.00 0.00 80 1012.6
20260506081416 53 345 4.3 7.8 0.00 0.00 0.00 80 1012.5
20260506081224 53 9 3.5 6.1 0.00 0.00 0.00 81 1012.6
20260506081023 53 359 4.3 7.0 0.00 0.00 0.00 80 1012.6
20260506080821 53 351 4.3 8.7 0.00 0.00 0.00 80 1012.6
20260506080620 53 8 6.1 9.6 0.00 0.00 0.00 80 1012.5
20260506080439 53 11 5.2 9.6 0.00 0.00 0.00 80 1012.5
20260506080217 53 11 6.1 8.7 0.00 0.00 0.00 80 1012.7
20260506073416 53 3 6.1 9.6 0.00 0.00 0.00 80 1012.6
20260506073225 53 18 5.2 7.0 0.00 0.00 0.00 80 1012.3
20260506073024 53 356 4.3 7.0 0.00 0.00 0.00 80 1012.3
20260506072822 53 1 5.2 8.7 0.00 0.00 0.00 80 1012.2
20260506072621 53 9 8.7 12.2 0.00 0.00 0.00 80 1012.5
20260506072420 53 4 7.8 11.3 0.00 0.00 0.00 80 1012.3
20260506072218 53 7 7.0 11.3 0.00 0.00 0.00 80 1012.3
20260506072017 53 9 6.1 10.4 0.00 0.00 0.00 80 1012.5
20260506071846 54 9 7.8 10.4 0.00 0.00 0.00 80 1012.5
20260506071624 54 12 5.2 10.4 0.00 0.00 0.00 80 1012.3
20260506071422 54 11 7.8 10.4 0.00 0.00 0.00 80 1012.3
20260506071221 54 358 6.1 11.3 0.00 0.00 0.00 80 1012.3
20260506071019 54 357 7.8 13.0 0.00 0.00 0.00 80 1012.3
20260506070819 54 6 5.2 10.4 0.00 0.00 0.00 81 1012.2
20260506070616 54 2 7.0 12.2 0.00 0.00 0.00 81 1011.7
20260506070425 54 10 5.2 9.6 0.00 0.00 0.00 81 1011.6
20260506070227 54 28 7.0 11.3 0.00 0.00 0.00 81 1011.6
20260506062416 54 20 6.1 11.3 0.00 0.00 0.00 81 1012.0
20260506062227 54 29 7.8 10.4 0.00 0.00 0.00 82 1012.0
20260506062023 54 19 7.0 13.9 0.00 0.00 0.00 82 1012.3
20260506061843 54 3 5.2 8.7 0.00 0.00 0.00 82 1012.2
20260506061622 54 9 7.8 12.2 0.00 0.00 0.00 82 1012.2
20260506061419 54 11 6.1 7.8 0.00 0.00 0.00 82 1012.0
20260506061217 54 13 6.1 8.7 0.00 0.00 0.00 82 1012.1
20260506061036 54 13 7.8 12.2 0.00 0.00 0.00 82 1012.1
20260506060845 54 16 7.0 10.4 0.00 0.00 0.00 82 1012.3
20260506060623 54 11 6.1 9.6 0.00 0.00 0.00 82 1012.2
20260506060423 54 18 8.7 11.3 0.00 0.00 0.00 82 1011.9
20260506060300 54 16 8.7 11.3 0.00 0.00 0.00 82 1012.0
20260506051225 55 9 7.8 9.6 0.00 0.00 0.00 82 1012.3
20260506051025 55 12 7.8 13.0 0.00 0.00 0.00 82 1012.4
20260506050901 55 7 7.0 11.3 0.00 0.00 0.00 82 1012.2
20260506050639 55 15 4.3 5.2 0.00 0.00 0.00 82 1012.3
20260506050418 55 19 6.1 9.6 0.00 0.00 0.00 82 1012.4
20260506050216 55 16 7.8 11.3 0.00 0.00 0.00 82 1012.3
20260506045041 55 357 5.2 10.4 0.00 0.00 0.00 83 1012.4
20260506044816 55 8 6.1 8.7 0.00 0.00 0.00 83 1012.3
20260506044625 55 8 7.0 11.3 0.00 0.00 0.00 83 1012.1
20260506044444 55 11 9.6 12.2 0.00 0.00 0.00 83 1012.1
20260506044222 55 12 7.0 10.4 0.00 0.00 0.00 83 1012.3
20260506044021 55 10 7.8 10.4 0.00 0.00 0.00 83 1012.1
20260506043820 55 20 9.6 11.3 0.00 0.00 0.00 83 1012.1
20260506043617 55 15 7.8 13.0 0.00 0.00 0.00 82 1012.4
20260506043436 56 355 6.1 13.0 0.00 0.00 0.00 82 1012.3
20260506043247 56 1 6.1 8.7 0.00 0.00 0.00 83 1012.4
20260506043023 56 9 7.8 13.0 0.00 0.00 0.00 83 1012.3
20260506042823 56 358 7.0 10.4 0.00 0.00 0.00 83 1012.5
20260506042620 56 6 10.4 13.9 0.00 0.00 0.00 83 1012.5
20260506042420 56 10 9.6 13.0 0.00 0.00 0.00 83 1012.3
20260506042238 56 11 8.7 13.0 0.00 0.00 0.00 83 1012.3
20260506042016 56 7 7.0 13.0 0.00 0.00 0.00 83 1012.3
20260506041825 56 12 11.3 14.8 0.00 0.00 0.00 83 1012.3
20260506041623 56 10 7.8 12.2 0.00 0.00 0.00 84 1012.2
20260506041442 56 14 10.4 15.6 0.00 0.00 0.00 84 1012.1
20260506041220 56 12 9.6 12.2 0.00 0.00 0.00 84 1012.1
20260506041018 56 8 10.4 15.6 0.00 0.00 0.00 84 1012.1
20260506040817 56 6 6.1 8.7 0.00 0.00 0.00 84 1012.0
20260506040616 56 10 7.0 11.3 0.00 0.00 0.00 84 1012.0
20260506040424 56 11 7.8 13.0 0.00 0.00 0.00 84 1012.1
20260506040223 56 17 10.4 14.8 0.00 0.00 0.00 85 1012.3
20260506040021 56 14 10.4 16.5 0.00 0.00 0.00 85 1012.2
20260506035900 56 3 7.0 9.6 0.00 0.00 0.00 86 1012.2
20260506035618 56 18 7.0 11.3 0.00 0.00 0.00 86 1012.2
20260506035417 56 358 7.0 10.4 0.00 0.00 0.00 86 1011.9
20260506035216 56 8 5.2 8.7 0.00 0.00 0.00 86 1012.0
20260506035044 56 2 7.0 10.4 0.00 0.00 0.00 86 1012.0
20260506034903 56 356 5.2 8.7 0.00 0.00 0.00 86 1012.0
20260506034621 57 6 4.3 6.1 0.00 0.00 0.00 86 1012.1
20260506034420 57 358 6.1 9.6 0.00 0.00 0.00 86 1011.9
20260506034219 57 356 6.1 10.4 0.00 0.00 0.00 86 1011.9
20260506034018 57 341 6.1 11.3 0.00 0.00 0.00 86 1011.8
20260506033845 57 15 6.1 9.6 0.00 0.00 0.00 86 1011.9
20260506033624 57 2 4.3 7.0 0.00 0.00 0.00 86 1012.0
20260506033423 57 12 5.2 8.7 0.00 0.00 0.00 86 1012.1
20260506033241 57 12 7.0 9.6 0.00 0.00 0.00 86 1011.8
20260506033020 57 7 4.3 9.6 0.00 0.00 0.00 86 1011.9
20260506032838 57 4 6.1 8.7 0.00 0.00 0.00 86 1011.8
20260506032617 57 6 7.0 12.2 0.00 0.00 0.00 86 1011.8
20260506032425 57 15 7.0 13.9 0.00 0.00 0.00 86 1012.0
20260506032224 57 16 11.3 14.8 0.00 0.00 0.00 86 1011.8
20260506032022 57 15 10.4 16.5 0.00 0.00 0.00 86 1011.6
20260506031821 57 9 9.6 13.0 0.00 0.00 0.00 86 1011.7
20260506031619 57 16 7.8 9.6 0.00 0.00 0.00 86 1011.6
20260506031418 57 11 6.1 9.6 0.00 0.00 0.00 86 1011.5
20260506031217 57 353 7.0 10.4 0.00 0.00 0.00 86 1011.4
20260506031025 58 354 7.0 10.4 0.00 0.00 0.00 86 1011.5
20260506030824 58 16 5.2 9.6 0.00 0.00 0.00 86 1011.4
20260506030622 58 19 7.0 7.8 0.00 0.00 0.00 86 1011.3
20260506030421 58 12 5.2 9.6 0.00 0.00 0.00 86 1011.2
20260506030220 58 25 8.7 13.0 0.00 0.00 0.00 86 1011.3
20260506030018 58 12 6.1 10.4 0.00 0.00 0.00 86 1011.5
20260506025816 58 7 4.3 6.1 0.00 0.00 0.00 86 1011.6
20260506025645 58 12 5.2 7.0 0.00 0.00 0.00 86 1011.4
20260506025423 58 24 7.0 10.4 0.00 0.00 0.00 85 1011.3
20260506025222 58 16 7.0 7.8 0.00 0.00 0.00 85 1011.4
20260506025020 58 22 7.8 10.4 0.00 0.00 0.00 85 1011.3
20260506024819 58 29 6.1 10.4 0.00 0.00 0.00 85 1011.3
20260506024617 58 20 5.2 8.7 0.00 0.00 0.00 85 1011.3
20260506024416 58 13 5.2 8.7 0.00 0.00 0.00 85 1011.3
20260506024225 58 3 6.1 9.6 0.00 0.00 0.00 85 1011.3
20260506024023 58 15 7.8 9.6 0.00 0.00 0.00 85 1011.3
20260506023842 58 24 7.0 12.2 0.00 0.00 0.00 85 1011.2
20260506023620 58 18 7.0 9.6 0.00 0.00 0.00 85 1011.3
20260506023419 59 14 7.0 9.6 0.00 0.00 0.00 85 1011.2
20260506023217 59 7 5.2 9.6 0.00 0.00 0.00 85 1011.3
20260506023016 59 5 6.1 9.6 0.00 0.00 0.00 85 1011.3
20260506022825 59 358 3.5 6.1 0.00 0.00 0.00 85 1011.0
20260506022623 59 1 4.3 5.2 0.00 0.00 0.00 85 1010.9
20260506022421 59 14 4.3 7.8 0.00 0.00 0.00 85 1011.0
20260506022220 59 14 7.0 9.6 0.00 0.00 0.00 85 1010.7
20260506022019 59 2 6.1 10.4 0.00 0.00 0.00 85 1010.7
20260506021837 59 9 7.0 10.4 0.00 0.00 0.00 85 1010.6
20260506021615 59 8 7.0 8.7 0.00 0.00 0.00 85 1010.7
20260506021427 59 28 13.0 14.8 0.00 0.00 0.00 84 1010.6
20260506021223 59 12 5.2 7.0 0.00 0.00 0.00 85 1010.4
20260506021041 59 13 6.1 7.8 0.00 0.00 0.00 85 1010.3
20260506020820 59 15 7.8 11.3 0.00 0.00 0.00 84 1010.0
20260506020619 59 20 7.8 10.4 0.00 0.00 0.00 84 1010.1
20260506020439 59 33 7.0 11.3 0.00 0.00 0.00 84 1009.9
20260506020216 59 16 7.8 13.9 0.00 0.00 0.00 84 1009.9
20260506020024 59 19 9.6 13.9 0.00 0.00 0.00 84 1009.9
20260506015823 59 12 9.6 13.9 0.00 0.00 0.00 84 1009.6
20260506015621 60 17 9.6 14.8 0.00 0.00 0.00 84 1009.6
20260506015421 60 18 9.6 16.5 0.00 0.00 0.00 83 1009.6
20260506015218 60 23 13.0 16.5 0.00 0.00 0.00 83 1009.5
20260506015037 60 14 8.7 12.2 0.00 0.00 0.00 84 1009.3
20260506014825 60 19 10.4 15.6 0.00 0.00 0.00 84 1009.2
20260506014624 60 19 7.0 8.7 0.00 0.00 0.00 83 1009.0
20260506014422 61 18 8.7 9.6 0.00 0.00 0.00 83 1009.0
20260506014221 61 15 9.6 13.0 0.00 0.00 0.00 83 1008.8
20260506014020 61 9 7.8 13.0 0.00 0.00 0.00 83 1008.9
20260506013818 61 11 9.6 14.8 0.00 0.00 0.00 82 1009.0
20260506013616 61 11 10.4 16.5 0.00 0.00 0.00 82 1009.0
20260506013426 61 18 10.4 14.8 0.00 0.00 0.00 82 1008.9
20260506013224 61 17 9.6 15.6 0.00 0.00 0.00 82 1008.9
20260506013023 61 16 9.6 13.9 0.00 0.00 0.00 82 1008.5
20260506012821 62 10 7.8 10.4 0.00 0.00 0.00 82 1008.6
20260506012639 62 11 11.3 16.5 0.00 0.00 0.00 81 1008.5
20260506012418 62 20 10.4 14.8 0.00 0.00 0.00 82 1008.5
20260506012216 62 3 7.0 12.2 0.00 0.00 0.00 82 1008.6
20260506012025 62 346 5.2 8.7 0.00 0.00 0.00 81 1008.6
20260506011824 62 4 7.8 14.8 0.00 0.00 0.00 81 1008.8
20260506011703 63 352 5.2 13.0 0.00 0.00 0.00 81 1008.5
20260506011422 63 356 9.6 14.8 0.00 0.00 0.00 81 1008.5
20260506011219 63 356 6.1 11.3 0.00 0.00 0.00 81 1008.4
20260506011017 63 358 6.1 12.2 0.00 0.00 0.00 81 1008.3
20260506010836 63 360 7.0 10.4 0.00 0.00 0.00 80 1008.2
20260506010625 63 360 7.0 14.8 0.00 0.00 0.00 80 1008.3
20260506010423 63 359 7.8 12.2 0.00 0.00 0.00 80 1008.2
20260506010224 63 338 8.7 13.0 0.00 0.00 0.00 80 1008.2
20260506010020 64 353 5.2 11.3 0.00 0.00 0.00 80 1008.2
20260506005819 64 352 7.8 13.9 0.00 0.00 0.00 79 1008.3
20260506005638 64 343 6.1 11.3 0.00 0.00 0.00 79 1008.1
20260506005417 64 360 7.8 12.2 0.00 0.00 0.00 79 1008.2
20260506005225 64 342 5.2 12.2 0.00 0.00 0.00 79 1008.0
20260506005024 64 10 5.2 13.0 0.00 0.00 0.00 79 1008.2
20260506004822 64 339 7.0 12.2 0.00 0.00 0.00 79 1008.0
20260506004620 64 6 6.1 10.4 0.00 0.00 0.00 79 1008.0
20260506004419 64 9 7.0 11.3 0.00 0.00 0.00 79 1007.7
20260506004218 64 5 7.0 12.2 0.00 0.00 0.00 79 1007.8
20260506004016 64 344 6.1 11.3 0.00 0.00 0.00 79 1008.2
20260506003905 64 15 6.1 11.3 0.00 0.00 0.00 79 1008.5
20260506003623 64 336 7.8 12.2 0.00 0.00 0.00 78 1008.4
20260506003442 65 337 7.0 11.3 0.00 0.00 0.00 79 1008.4
20260506003220 65 336 6.1 10.4 0.00 0.00 0.00 79 1008.3
20260506003019 65 345 5.2 9.6 0.00 0.00 0.00 79 1008.2
20260506002817 65 330 7.8 13.0 0.00 0.00 0.00 79 1008.3
20260506002617 65 354 5.2 10.4 0.00 0.00 0.00 79 1008.3
20260506002424 65 339 5.2 8.7 0.00 0.00 0.00 78 1008.2
20260506002224 65 345 4.3 8.7 0.00 0.00 0.00 78 1008.0
20260506002022 65 349 6.1 13.0 0.00 0.00 0.00 78 1007.9
20260506001841 65 349 5.2 9.6 0.00 0.00 0.00 78 1008.0
20260506001619 65 341 8.7 13.9 0.00 0.00 0.00 78 1008.2
20260506001417 65 356 4.3 9.6 0.00 0.00 0.00 78 1008.0
20260506001215 65 7 7.8 13.0 0.00 0.00 0.00 77 1008.2
20260506001024 65 345 6.1 11.3 0.00 0.00 0.00 78 1008.2
20260506000823 65 330 3.5 7.0 0.00 0.00 0.00 78 1008.4
20260506000621 65 343 3.5 7.8 0.00 0.00 0.00 78 1008.3
20260506000420 65 317 7.0 12.2 0.00 0.00 0.00 77 1008.3
20260506000219 65 334 7.0 9.6 0.00 0.00 0.00 77 1008.1
20260506000017 65 339 5.2 10.4 0.00 0.00 0.00 76 1007.8
20260505235846 66 340 7.8 11.3 0.00 0.00 0.00 76 1007.8
20260505235624 66 329 4.3 7.8 0.00 0.00 0.00 76 1008.2
20260505235422 66 345 6.1 11.3 0.00 0.00 0.00 76 1008.2
20260505235241 66 341 7.0 12.2 0.00 0.00 0.00 76 1008.3
20260505235040 66 330 12.2 17.4 0.00 0.00 0.00 75 1008.2
20260505234819 66 350 6.1 10.4 0.00 0.00 0.00 75 1008.0
20260505234637 66 337 7.0 14.8 0.00 0.00 0.00 75 1008.0
20260505234425 66 351 8.7 11.3 0.00 0.00 0.00 75 1008.0
20260505234224 66 348 10.4 17.4 0.00 0.00 0.00 75 1008.0
20260505234022 67 353 4.3 9.6 0.00 0.00 0.00 76 1007.8
20260505233823 67 343 10.4 13.9 0.00 0.00 0.00 75 1007.9
20260505233700 67 336 10.4 18.2 0.00 0.00 0.00 75 1008.0
20260505233438 67 343 7.8 11.3 0.00 0.00 0.00 75 1008.2
20260505233216 67 348 9.6 15.6 0.00 0.00 0.00 75 1008.2
20260505233026 67 335 10.4 17.4 0.00 0.00 0.00 75 1008.3
20260505232823 67 316 9.6 13.0 0.00 0.00 0.00 75 1008.2
20260505232622 67 314 9.6 14.8 0.00 0.00 0.00 75 1008.3
20260505232421 68 321 13.0 21.7 0.00 0.00 0.00 74 1008.3
20260505232219 68 330 7.8 16.5 0.00 0.00 0.00 75 1008.2
20260505232018 68 319 7.8 11.3 0.00 0.00 0.00 75 1007.9
20260505231816 68 337 6.1 11.3 0.00 0.00 0.00 75 1007.6
20260505231625 68 340 9.6 14.8 0.00 0.00 0.00 75 1007.5
20260505231423 69 348 9.6 14.8 0.00 0.00 0.00 74 1007.6
20260505231222 69 336 8.7 16.5 0.00 0.00 0.00 74 1007.6
20260505231020 69 338 11.3 20.0 0.00 0.00 0.00 74 1007.6
20260505230839 69 334 10.4 14.8 0.00 0.00 0.00 73 1007.5
20260505230416 69 345 6.1 14.8 0.00 0.00 0.00 73 1007.8
20260505230225 69 323 10.4 13.9 0.00 0.00 0.00 72 1007.8
20260505230023 70 317 13.9 19.1 0.00 0.00 0.00 72 1007.6
20260505225902 70 316 15.6 23.5 0.00 0.00 0.00 72 1007.8
20260505225620 70 321 13.0 16.5 0.00 0.00 0.00 72 1007.5
20260505225420 70 318 12.2 17.4 0.00 0.00 0.00 72 1007.6
20260505225217 70 323 13.9 18.2 0.00 0.00 0.00 72 1007.6
20260505225016 70 323 9.6 13.0 0.00 0.00 0.00 73 1007.7
20260505224924 70 320 9.6 13.0 0.00 0.00 0.00 73 1007.6
20260505224624 70 327 13.0 20.9 0.00 0.00 0.00 72 1007.5
20260505224422 70 323 11.3 15.6 0.00 0.00 0.00 72 1007.7
20260505224220 71 343 9.6 19.1 0.00 0.00 0.00 72 1007.7
20260505224019 71 346 10.4 14.8 0.00 0.00 0.00 72 1007.8
20260505223817 71 327 7.8 14.8 0.00 0.00 0.00 73 1007.9
20260505223615 71 322 7.8 11.3 0.00 0.00 0.00 73 1007.8
20260505223424 71 308 11.3 15.6 0.00 0.00 0.00 72 1007.7
20260505223223 71 312 14.8 21.7 0.00 0.00 0.00 72 1007.7
20260505223041 71 312 16.5 20.0 0.00 0.00 0.00 72 1007.8
20260505222821 71 322 11.3 15.6 0.00 0.00 0.00 72 1007.7
20260505222618 71 317 15.6 18.2 0.00 0.00 0.00 72 1007.6
20260505222417 71 304 12.2 14.8 0.00 0.00 0.00 72 1007.5